Weather History for KY50 - June, 2014

Change the Weather History Date:

Sunday, June 8, 2014

  Actual Average (KPCZ) Record (KPCZ)
Temperature  
Mean Temperature 63 °F -  
Max Temperature 72 °F 78 °F 95 °F (2011)
Min Temperature 52 °F 52 °F 38 °F (1960)
Degree Days  
Heating Degree Days 2    
Growing Degree Days 13 (Base 50)    
Moisture  
Dew Point 49 °F    
Average Humidity 66    
Maximum Humidity 94    
Minimum Humidity 32    
Precipitation  
Precipitation 0.00 in - - ()
Sea Level Pressure  
Sea Level Pressure 30.03 in    
Wind  
Wind Speed 8 mph (NE)    
Max Wind Speed 12 mph    
Max Gust Speed -    
Visibility 10 miles    
Events      
Averages and records for this station are not official NWS values.
T = Trace of Precipitation, MM = Missing Value Source: NWS Daily Summary

Daily Weather History Graph

Daily Weather History Graph

Search for Another Location

Airport or City:

Trip Planner

Search our weather history database for the weather conditions in past years. The results will help you decide how hot, cold, wet, or windy it might be!

Date:

Astronomy

Jun. 08, 2014 Rise Set
Actual Time 5:14 AM CDT 8:38 PM CDT
Civil Twilight 4:38 AM CDT 9:14 PM CDT
Nautical Twilight 3:51 AM CDT 10:01 PM CDT
Astronomical Twilight 2:52 AM CDT 11:00 PM CDT
Moon 3:47 PM CDT (6/8) 2:17 AM CDT (6/8)
Length of Visible Light 16h 35m
Length of Day
15h 23m
Waxing Gibbous, 77% of the Moon is Illuminated
Jun 8
Waxing Gibbous
Jun 12
Full
Jun 19
Last Quarter
Jun 27
New
Jul 5
First Quarter

Hourly Weather History & Observations

Time (CDT) Temp. Dew Point Humidity Pressure Visibility Wind Dir Wind Speed Gust Speed Precip Events Conditions
1:25 AM 60.8 °F 57.2 °F 88% 29.98 in 10.0 mi North 6.9 mph - N/A   Overcast
1:56 AM 59.9 °F 56.8 °F 90% 29.95 in 10.0 mi North 11.5 mph - N/A   Overcast
2:36 AM 57.2 °F 55.4 °F 94% 29.97 in 10.0 mi NNE 11.5 mph - N/A   Overcast
2:47 AM 57.2 °F 55.4 °F 94% 29.98 in 10.0 mi NNE 10.4 mph - N/A   Overcast
2:56 AM 57.9 °F 54.0 °F 87% 29.97 in 10.0 mi NNE 9.2 mph - N/A   Overcast
3:22 AM 57.2 °F 53.6 °F 88% 30.00 in 10.0 mi NNE 8.1 mph - N/A   Overcast
3:49 AM 57.2 °F 53.6 °F 88% 30.00 in 10.0 mi NNE 8.1 mph - N/A   Overcast
4:25 AM 57.2 °F 53.6 °F 88% 30.01 in 10.0 mi NNE 6.9 mph - N/A   Overcast
4:56 AM 55.9 °F 54.0 °F 93% 30.01 in 10.0 mi NNE 4.6 mph - N/A   Overcast
5:56 AM 55.9 °F 54.0 °F 93% 30.03 in 10.0 mi NNE 3.5 mph - N/A   Overcast
7:56 AM 59.9 °F 50.9 °F 72% 30.04 in 10.0 mi NNE 10.4 mph - N/A   Clear
8:56 AM 63.9 °F 45.9 °F 52% 30.06 in 10.0 mi NE 9.2 mph - N/A   Clear
9:56 AM 66.2 °F 44.6 °F 46% 30.08 in 10.0 mi NE 9.2 mph - N/A   Clear
10:56 AM 68.0 °F 43.9 °F 42% 30.07 in 10.0 mi NNE 9.2 mph - N/A   Clear
12:56 PM 71.6 °F 42.8 °F 35% 30.08 in 10.0 mi NE 8.1 mph - N/A   Clear
1:56 PM 70.9 °F 41.0 °F 34% 30.06 in 10.0 mi NE 9.2 mph - N/A   Clear
2:56 PM 72.9 °F 41.0 °F 32% 30.04 in 10.0 mi ENE 9.2 mph - N/A   Partly Cloudy
3:56 PM 72.9 °F 41.9 °F 33% 30.03 in 10.0 mi East 9.2 mph - N/A   Partly Cloudy
4:56 PM 72.9 °F 41.9 °F 33% 30.03 in 10.0 mi Calm Calm - N/A   Scattered Clouds
5:56 PM 72.0 °F 45.0 °F 38% 30.03 in 10.0 mi East 5.8 mph - N/A   Partly Cloudy
6:56 PM 71.6 °F 44.6 °F 38% 30.04 in 10.0 mi East 5.8 mph - N/A   Clear
7:56 PM 70.0 °F 45.9 °F 42% 30.04 in 10.0 mi ESE 5.8 mph - N/A   Clear
8:56 PM 63.9 °F 47.8 °F 56% 30.04 in 10.0 mi Calm Calm - N/A   Clear
9:56 PM 57.2 °F 51.8 °F 82% 30.07 in 10.0 mi Calm Calm - N/A   Clear
10:56 PM 54.9 °F 50.0 °F 84% 30.06 in 10.0 mi Calm Calm - N/A   Clear
11:56 PM 52.9 °F 48.9 °F 86% 30.08 in 10.0 mi Calm Calm - N/A   Clear